[[{"header":{"parameterUnit":"m.s-1","parameterCategory":1,"la1":30.2992,"la2":30.254,"lo1":-89.0895,"lo2":-89.0443,"dy":0.0025,"dx":0.0025,"nx":19,"ny":19,"refTime":"2026-05-12T21:00:00:Z","depth":0,"parameterNumber":2,"parameterNumberName":"U-component_of_WINDS"},"data":[0,0,0,1.118,1.1182,1.1307,1.1308,1.145,1.1452,0,0,0,0,0,0,0,0,0,0,0,1.113,1.113,1.118,1.1182,1.1307,1.1308,1.145,1.1452,0,0,0,0,0,0,0,0,0,0,0,1.1129,1.113,1.1131,1.1183,1.1307,1.1308,1.145,1.1363,0,0,0,0,0,0,0,0,0,0,1.1245,1.1184,1.113,1.1131,1.1183,1.1307,1.1308,1.1359,1.1368,1.1386,0,1.1395,0,1.1426,1.146,1.146,0,0,0,1.1193,1.1176,1.1222,1.1131,1.1184,1.1306,1.1254,1.1364,1.1375,1.1398,1.1398,1.1404,1.1428,1.1461,1.1461,1.1523,1.1523,0,0,1.1186,1.1145,1.1214,1.1228,1.1204,1.125,1.1257,1.1371,1.1369,1.1398,1.1407,1.143,1.1461,1.1462,1.1523,1.1523,0,0,0,1.1159,1.114,1.1183,1.1222,1.1245,1.1253,1.1262,1.1364,1.1381,1.1409,1.1432,1.1462,1.1464,1.1524,1.1523,1.1472,0,0,0,1.1156,1.1124,1.118,1.1156,1.1243,1.1305,1.1252,1.1373,1.1387,1.1431,1.1462,1.1465,1.1524,1.1523,1.1474,1.1454,0,0,0,1.1126,1.1121,1.1134,1.1154,1.1206,1.1304,1.1329,1.1377,1.1401,1.146,1.1465,1.1524,1.1524,1.1476,1.1457,1.1458,0,0,0,1.1083,1.1088,1.1133,1.1148,1.1204,1.1271,1.1328,1.1381,1.1426,1.1463,1.1524,1.1523,1.1476,1.1459,1.146,1.1451,1.1443,0,0,1.1066,1.1084,1.1096,1.114,1.1188,1.1256,1.1298,1.1379,1.1423,1.1488,1.149,1.1473,1.1458,1.1459,1.1418,1.1411,0,0,0,1.1077,1.1085,1.1107,1.1147,1.1208,1.1259,1.1338,1.1369,1.1425,1.1447,1.1476,1.1468,1.147,1.1468,1.1462,1.1467,1.1521,1.1521,1.1521,1.0993,1.1049,1.1073,1.1144,1.1183,1.1264,1.1302,1.1358,1.1403,1.1409,1.1428,1.1396,1.1391,1.1388,1.1392,1.1429,1.1429,1.1429,1.1429,1.0973,1.0992,1.1054,1.1098,1.1159,1.1198,1.1279,1.131,1.1358,1.1386,1.1391,1.1416,1.1379,1.1386,1.1425,1.1426,1.1426,1.1427,1.1427,1.0923,1.0942,1.0978,1.1043,1.1088,1.1162,1.1204,1.1259,1.1311,1.1316,1.1342,1.1343,1.135,1.1325,1.1324,1.1324,1.1324,1.1324,1.1324,1.0855,1.0898,1.0926,1.0992,1.1026,1.1078,1.1163,1.1199,1.1253,1.129,1.129,1.1335,1.1365,1.137,1.1323,1.1323,1.1323,1.1323,1.1323,1.081,1.083,1.0871,1.0905,1.099,1.1031,1.1101,1.117,1.1209,1.1228,1.1274,1.1287,1.131,1.1315,1.1319,1.1262,1.1262,1.1262,1.1262,1.0766,1.0784,1.084,1.0891,1.0948,1.1016,1.1065,1.1132,1.1206,1.1234,1.1251,1.1263,1.1265,1.1287,1.1292,1.1297,1.1235,1.1235,1.1235,1.0742,1.0768,1.0796,1.0867,1.0938,1.0998,1.1047,1.1106,1.1194,1.1235,1.1257,1.1258,1.1278,1.1281,1.132,1.1327,1.1338,0,0]},{"header":{"parameterUnit":"m.s-1","parameterCategory":1,"la1":30.2992,"la2":30.254,"lo1":-89.0895,"lo2":-89.0443,"dy":0.0025,"dx":0.0025,"nx":19,"ny":19,"refTime":"2026-05-12T21:00:00:Z","depth":0,"parameterNumber":3,"parameterNumberName":"V-component_of_WINDS"},"data":[0,0,0,-1.0602,-1.0599,-1.0437,-1.0437,-1.0198,-1.0195,0,0,0,0,0,0,0,0,0,0,0,-1.0633,-1.0631,-1.0603,-1.0598,-1.0438,-1.0437,-1.0198,-1.0195,0,0,0,0,0,0,0,0,0,0,0,-1.0634,-1.0631,-1.0628,-1.0598,-1.0438,-1.0437,-1.0199,-1.0331,0,0,0,0,0,0,0,0,0,0,-1.0493,-1.0504,-1.0632,-1.0628,-1.0596,-1.0438,-1.0437,-1.0338,-1.0323,-1.0257,0,-1.0197,0,-1.0192,-1.0177,-1.0176,0,0,0,-1.061,-1.0517,-1.049,-1.0628,-1.0595,-1.0438,-1.0513,-1.033,-1.0313,-1.0237,-1.0194,-1.0186,-1.0188,-1.0176,-1.0174,-0.9764,-0.9761,0,0,-1.0619,-1.0593,-1.0502,-1.0478,-1.0505,-1.0518,-1.0508,-1.032,-1.027,-1.0193,-1.0181,-1.0184,-1.0174,-1.0172,-0.9766,-0.9763,0,0,0,-1.0636,-1.0599,-1.0577,-1.0487,-1.0461,-1.0513,-1.0502,-1.0278,-1.0274,-1.0178,-1.0182,-1.0172,-1.0169,-0.9769,-0.9765,-0.9618,0,0,0,-1.0642,-1.0609,-1.058,-1.0563,-1.0464,-1.0368,-1.0464,-1.0287,-1.0266,-1.0183,-1.0172,-1.0166,-0.9772,-0.9767,-0.9628,-0.955,0,0,0,-1.0649,-1.061,-1.0582,-1.0562,-1.0493,-1.0372,-1.0357,-1.0283,-1.0267,-1.0176,-1.0166,-0.9774,-0.9768,-0.9637,-0.9565,-0.9434,0,0,0,-1.0647,-1.0451,-1.0579,-1.0361,-1.0494,-1.0284,-1.0358,-1.0203,-1.0107,-1.0171,-0.9771,-0.9765,-0.964,-0.9574,-0.9443,-0.9317,-0.9263,0,0,-1.0385,-1.0419,-1.0293,-1.0402,-1.0164,-1.0311,-1.0049,-0.9984,-0.9997,-0.984,-0.983,-0.9624,-0.9566,-0.9436,-0.8974,-0.8931,0,0,0,-1.0201,-1.0109,-1.0052,-0.9962,-0.991,-0.9859,-0.9838,-0.9814,-0.9682,-0.9913,-0.9544,-0.951,-0.9435,-0.9375,-0.9338,-0.9274,-0.9738,-0.9739,-0.9739,-0.9788,-0.982,-0.9613,-0.9625,-0.9537,-0.9519,-0.9449,-0.9413,-0.9468,-0.938,-0.9332,-0.9049,-0.8978,-0.8951,-0.8883,-0.9271,-0.927,-0.927,-0.927,-0.9405,-0.9279,-0.9362,-0.919,-0.9223,-0.9079,-0.9054,-0.9098,-0.8966,-0.9087,-0.9022,-0.9148,-0.8902,-0.8845,-0.9259,-0.9261,-0.9262,-0.9263,-0.9264,-0.9135,-0.908,-0.9059,-0.8933,-0.8832,-0.8851,-0.8721,-0.8757,-0.8788,-0.8724,-0.8676,-0.8678,-0.8683,-0.87,-0.8699,-0.8698,-0.8697,-0.8696,-0.8696,-0.8862,-0.8843,-0.8731,-0.8662,-0.861,-0.8545,-0.8527,-0.8475,-0.8426,-0.8462,-0.8461,-0.8523,-0.8875,-0.896,-0.868,-0.8683,-0.8685,-0.8687,-0.8688,-0.8454,-0.8553,-0.838,-0.8328,-0.8251,-0.8148,-0.8197,-0.8089,-0.8051,-0.7985,-0.8063,-0.8319,-0.8354,-0.8383,-0.8454,-0.8059,-0.806,-0.8059,-0.8059,-0.8223,-0.8247,-0.8079,-0.7993,-0.7914,-0.7942,-0.7742,-0.7727,-0.7725,-0.7704,-0.7767,-0.7865,-0.7894,-0.7912,-0.7951,-0.8018,-0.7521,-0.7521,-0.752,-0.7973,-0.7991,-0.7815,-0.782,-0.7764,-0.7713,-0.7526,-0.7421,-0.7441,-0.7499,-0.7686,-0.7709,-0.7869,-0.792,-0.7976,-0.8037,-0.816,0,0]}]]